Weather History for Burlington, CO

Change the Weather History Date:

Sunday, April 28, 2013

  Actual Average Record
Temperature  
Mean Temperature 64 °F 52 °F  
Max Temperature 85 °F 66 °F 93 °F (1910)
Min Temperature 42 °F 38 °F 21 °F (1984)
Degree Days  
Heating Degree Days 2    
Growing Degree Days 14 (Base 50)    
Moisture  
Dew Point 24 °F    
Average Humidity 28    
Maximum Humidity 58    
Minimum Humidity 8    
Precipitation  
Precipitation 0.00 in 0.07 in 1.05 in (1927)
Month to date precipitation 0.26 1.33  
Year to date precipitation 2.85 3.02  
Sea Level Pressure  
Sea Level Pressure 29.78 in    
Wind  
Wind Speed 11 mph (West)    
Max Wind Speed 20 mph    
Max Gust Speed 26 mph    
Visibility 10 miles    
Events      
T = Trace of Precipitation, MM = Missing Value Source: NWS Daily Summary

Daily Weather History Graph

Daily Weather History Graph

Search for Another Location

Airport:

Trip Planner

Search our weather history database for the weather conditions in past years. The results will help you decide how hot, cold, wet, or windy it might be!

Date:

Astronomy

Apr. 28, 2013 Rise Set
Actual Time 5:54 AM MDT 7:39 PM MDT
Civil Twilight 5:25 AM MDT 8:08 PM MDT
Nautical Twilight 4:50 AM MDT 8:43 PM MDT
Astronomical Twilight 4:13 AM MDT 9:20 PM MDT
Moon 11:11 PM MDT (4/28) 8:13 AM MDT (4/28)
Length of Visible Light 14h 43m
Length of Day
13h 45m
Waning Gibbous, 88% of the Moon is Illuminated
Apr 28
Waning Gibbous
May 2
Last Quarter
May 9
New
May 17
First Quarter
May 24
Full

Hourly Weather History & Observations

Time (MDT) Temp. Windchill Dew Point Humidity Pressure Visibility Wind Dir Wind Speed Gust Speed Precip Events Conditions
12:53 AM 45.0 °F 40.6 °F 28.9 °F 53% 29.89 in 10.0 mi WSW 8.1 mph - N/A   Clear
1:53 AM 45.0 °F 40.1 °F 30.0 °F 56% 29.87 in 10.0 mi WSW 9.2 mph - N/A   Clear
2:53 AM 44.1 °F 39.5 °F 30.0 °F 58% 29.86 in 10.0 mi WSW 8.1 mph - N/A   Clear
3:53 AM 43.0 °F 37.2 °F 28.9 °F 58% 29.86 in 10.0 mi WSW 10.4 mph - N/A   Clear
4:53 AM 43.0 °F 37.7 °F 28.9 °F 58% 29.85 in 10.0 mi WSW 9.2 mph - N/A   Clear
5:53 AM 45.0 °F 39.3 °F 28.9 °F 53% 29.85 in 10.0 mi WSW 11.5 mph - N/A   Clear
7:53 AM 57.0 °F - 30.0 °F 36% 29.86 in 10.0 mi West 10.4 mph - N/A   Clear
8:53 AM 70.0 °F - 24.1 °F 18% 29.85 in 10.0 mi West 15.0 mph - N/A   Clear
9:53 AM 77.0 °F - 21.0 °F 12% 29.82 in 10.0 mi West 18.4 mph 26.5 mph N/A   Clear
10:53 AM 79.0 °F - 17.1 °F 10% 29.81 in 10.0 mi WSW 15.0 mph 25.3 mph N/A   Clear
11:53 AM 81.0 °F - 16.0 °F 9% 29.79 in 10.0 mi WSW 13.8 mph 18.4 mph N/A   Clear
12:53 PM 81.0 °F - 15.1 °F 8% 29.77 in 10.0 mi SSW 4.6 mph - N/A   Clear
1:53 PM 82.0 °F - 15.1 °F 8% 29.75 in 10.0 mi SSW 11.5 mph 26.5 mph N/A   Clear
2:53 PM 84.9 °F - 16.0 °F 8% 29.73 in 10.0 mi WSW 19.6 mph 26.5 mph N/A   Clear
3:53 PM 84.0 °F - 16.0 °F 8% 29.71 in 10.0 mi WNW 13.8 mph 20.7 mph N/A   Clear
4:53 PM 82.9 °F - 16.0 °F 8% 29.70 in 10.0 mi West 11.5 mph - N/A   Clear
5:53 PM 82.0 °F - 18.0 °F 9% 29.69 in 10.0 mi WNW 10.4 mph 16.1 mph N/A   Clear
6:53 PM 78.1 °F - 24.1 °F 14% 29.68 in 10.0 mi NNW 5.8 mph - N/A   Clear
7:53 PM 73.0 °F - 24.1 °F 16% 29.69 in 10.0 mi North 4.6 mph - N/A   Clear
8:53 PM 68.0 °F - 24.1 °F 19% 29.69 in 10.0 mi North 6.9 mph - N/A   Clear
9:53 PM 60.1 °F - 30.9 °F 33% 29.72 in 10.0 mi NE 12.7 mph - N/A   Partly Cloudy
10:53 PM 55.0 °F - 34.0 °F 45% 29.73 in 10.0 mi NE 12.7 mph - N/A   Clear
11:53 PM 53.1 °F - 34.0 °F 48% 29.75 in 10.0 mi NE 15.0 mph - N/A   Clear